Location: Monteux
(44.0348°N, 4.9972°E)
Time: 17:53:48
(UTC+00:00)

CSL-04 DEB - Pass Details

Date: 30 November 2020
Orbit: 546 x 627 km, 98.8° (Epoch: 17 January)

Event Time Altitude Azimuth Distance (km) Brightness Sun altitude
Rises 17:02:34 0° 15° (NNE) 2,811 7.6 -10.5°
Reaches altitude 10° 17:04:43 10° 17° (NNE) 1,920 6.7 -10.8°
Maximum altitude 17:08:53 78° 103° (ESE) 616 4.4 -11.5°
Drops below altitude 10° 17:13:08 10° 191° (S) 1,953 7.5 -12.2°
Sets 17:15:19 0° 192° (SSW) 2,863 8.4 -12.6°
